Miscellaneous Local Product
Issued by NWS Hastings, NE

Home | Current Version | Previous Version | Graphics & Text | Print | Product List | Glossary On
Versions: 1 2 3 4 5 6 7 8 9 10 11 12 13 14 15 16 17 18 19 20 21 22 23 24 25 26 27 28 29 30 31 32 33 34 35 36 37 38 39 40 41 42 43 44 45 46 47 48 49 50
000
AXUS43 KGID 310002
MISGRI

GID CWA HOURLY WEATHER ROUNDUP
NATIONAL WEATHER SERVICE HASTINGS NE
700 PM CDT THU JUL 30 2015

NOTE: "FAIR" INDICATES FEW OR NO CLOUDS BELOW 12,000 FEET WITH NO
SIGNIFICANT WEATHER AND/OR OBSTRUCTIONS TO VISIBILITY.

...SOUTH CENTRAL NEBRASKA...

CITY           SKY/WX    TMP DP  RH WIND       PRES   REMARKS
GRAND ISLAND   SUNNY     87  64  46 VRB6      30.14F
HASTINGS       SUNNY     87  63  44 S7        30.15F
KEARNEY        SUNNY     84  64  51 S6        30.15F
ORD            MOSUNNY   86  62  44 SW6       30.11F
YORK           SUNNY     84  66  54 S6        30.15F
AURORA         SUNNY     84  67  56 SE7       30.14F
LEXINGTON      SUNNY     88  63  43 S7        30.16F
HOLDREGE       SUNNY     85  61  44 SE6       30.16F
HEBRON         SUNNY     86  59  39 S3        30.14F

...NEBRASKA PANHANDLE...

CITY           SKY/WX    TMP DP  RH WIND       PRES   REMARKS
CHADRON        SUNNY     89  42  19 CALM      30.19F
ALLIANCE       SUNNY     88  48  25 NE6       30.21F
SCOTTSBLUFF    SUNNY     89  44  20 SE7       30.21F
SIDNEY         MOSUNNY   81  60  48 S13       30.24F

...WESTERN AND NORTH CENTRAL NEBRASKA...

CITY           SKY/WX    TMP DP  RH WIND       PRES   REMARKS
VALENTINE      SUNNY     90  43  19 N10       30.16S
AINSWORTH      SUNNY     87  56  35 NE5       30.15F
ONEILL         MOSUNNY   89  59  36 NE7       30.13F
BROKEN BOW     MOSUNNY   88  63  43 S7        30.16F
IMPERIAL       PTSUNNY   89  55  31 SE14      30.17F
NORTH PLATTE   SUNNY     83  58  42 S7        30.15F
MCCOOK         MOSUNNY   88  60  38 SE10      30.15F

...EASTERN NEBRASKA...

CITY           SKY/WX    TMP DP  RH WIND       PRES   REMARKS
NORFOLK        SUNNY     86  61  42 S8        30.11F
SO SIOUX CITY  SUNNY     85  69  58 SW6       30.09F
TEKAMAH        SUNNY     85  71  63 SW3       30.10F HX  90
COLUMBUS       SUNNY     84  64  51 S6        30.11F
ALBION         SUNNY     85  63  47 S8        30.12F
OMAHA EPPLEY   MOSUNNY   89  60  37 CALM      30.10F
OFFUTT AFB     SUNNY     87  61  42 SW5       30.10F
MILLARD        SUNNY     89  59  37 SW7       30.11F
LINCOLN        SUNNY     88  60  38 S9        30.12F
NEBRASKA CITY  SUNNY     83  62  48 W3        30.13F
BEATRICE       SUNNY     85  60  42 S7        30.13F
FALLS CITY     SUNNY     84  65  52 S5        30.12F

...NORTHERN KANSAS...

CITY           SKY/WX    TMP DP  RH WIND       PRES   REMARKS
GOODLAND       SUNNY     86  55  34 SE14G20   30.20F
HILL CITY      SUNNY     88  64  44 VRB3      30.15F
NORTON         CLEAR     88  59  37 SE3       30.15F
PHILLIPSBURG   SUNNY     91  61  35 CALM      30.14F HAZE    HX  91
SMITH CENTER   SUNNY     88  64  45 SE7       30.14F
HAYS           SUNNY     86  64  48 SE6       30.14F
RUSSELL        MOSUNNY   86  67  52 VRB5      30.13F
CONCORDIA      SUNNY     84  69  60 S9        30.13F
SALINA         MOSUNNY   87  68  52 SE7       30.13S HX  90
TOPEKA         MOSUNNY   84  64  50 E5        30.13F



USA.gov is the U.S. government's official web portal to all federal, state and local government web resources and services.